Location: ????? ????
(37.9717°N, 23.4051°E)
Time: 12:49:28
(UTC+00:00)

ADEOS Rocket - Pass Details

Date: 18 April 2024
Orbit: 859 x 1305 km, 98.7° (Epoch: 17 May)

Event Time Altitude Azimuth Distance (km) Brightness Sun altitude
Rises 17:19:58 0° 170° (S) 3,477 5.6 -3.6°
Reaches altitude 10° 17:22:23 10° 172° (S) 2,515 4.9 -4.0°
Maximum altitude 17:27:53 74° 257° (WSW) 894 3.1 -5.1°
Drops below altitude 10° 17:33:24 10° 343° (NNW) 2,522 5.7 -6.1°
Sets 17:35:50 0° 345° (NNW) 3,489 6.4 -6.5°
